This is the latest recevied weather packets stored in our database for station/object KB3FKJ. If no packets are shown the sender has not sent any weather packets the latest 10 day(s).
| Time | Temp. | Humidity | Pressure | Rain* | Wind** | Luminosity | Snow |
|---|---|---|---|---|---|---|---|
| 1777302391 | 15° C | 68% | 1023.8 hPa | 0 mm | - | 35 W/m² | - |
| 1777302088 | 14.44° C | 70% | 1023.8 hPa | 0 mm | - | 38 W/m² | - |
| 1777301786 | 13.89° C | 69% | 1023.7 hPa | 0 mm | - | 31 W/m² | - |
| 1777301483 | 13.89° C | 69% | 1024 hPa | 0 mm | - | 31 W/m² | - |
| 1777301180 | 13.33° C | 71% | 1024 hPa | 0 mm | - | 31 W/m² | - |
| 1777300877 | 13.33° C | 70% | 1024 hPa | 0 mm | - | 30 W/m² | - |
| 1777300575 | 13.33° C | 70% | 1024.2 hPa | 0 mm | - | 33 W/m² | - |
| 1777300272 | 13.89° C | 71% | 1024.1 hPa | 0 mm | - | 32 W/m² | - |
| 1777299968 | 13.33° C | 71% | 1024.2 hPa | 0 mm | - | 56 W/m² | - |
| 1777299665 | 13.33° C | 72% | 1024.2 hPa | 0 mm | - | 137 W/m² | - |
| 1777299363 | 13.33° C | 73% | 1024.4 hPa | 0 mm | - | 125 W/m² | - |
| 1777299061 | 12.78° C | 74% | 1024.3 hPa | 0 mm | - | 187 W/m² | - |
| 1777298757 | 12.78° C | 74% | 1024.2 hPa | 0 mm | - | 237 W/m² | - |
| 1777298454 | 11.67° C | 75% | 1024.3 hPa | 0 mm | - | 212 W/m² | - |
| 1777298150 | 11.67° C | 74% | 1024.4 hPa | 0 mm | - | 95 W/m² | - |
| 1777297845 | 12.22° C | 74% | 1024.4 hPa | 0 mm | - | 130 W/m² | - |
| 1777297544 | 12.78° C | 77% | 1024.4 hPa | 0 mm | - | 124 W/m² | - |
| 1777297240 | 11.67° C | 75% | 1024.4 hPa | 0 mm | - | 179 W/m² | - |
| 1777296937 | 11.11° C | 78% | 1024.3 hPa | 0 mm | - | 360 W/m² | - |
| 1777296634 | 10° C | 79% | 1024.5 hPa | 0 mm | - | 52 W/m² | - |
| 1777296304 | 10° C | 80% | 1024.4 hPa | 0 mm | - | 297 W/m² | - |
| 1777295999 | 9.44° C | 80% | 1024.2 hPa | 0 mm | - | 221 W/m² | - |
| 1777295697 | 9.44° C | 82% | 1024.5 hPa | 0 mm | - | 213 W/m² | - |
| 1777295395 | 9.44° C | 84% | 1024.5 hPa | 0 mm | - | 180 W/m² | - |
| 1777295092 | 8.89° C | 84% | 1024.3 hPa | 0 mm | - | 89 W/m² | - |
* Rain latest hour (hover to see other rain measurements)
** Current wind speed in m/s (hover to see current wind gust speed)